User: anonymous   Login
Location: Unspecified
(0.0000°N, 0.0000°E)
Time: 06:52:19
(UTC+00:00)
Language:

STARLINK-34689 - Orbit

View from above orbital plane
View from above orbital plane
View from above satellite
View from above satellite

Ground track
Ground track

The orbit is defined by the following mean orbital elements,

1 64949U          26145.12582672 +.00000000 +00000-0 +20195-3 0 00006
2 64949  97.4495   8.9915 0002605  88.8506 271.3020 15.05657124    03
Epoch (UTC): 25 May 2026 03:01:11
Eccentricity: 0.0002605
inclination: 97.4495°
perigee height: 548 km
apogee height: 551 km
right ascension of ascending node: 8.9915°
argument of perigee: 88.8506°
revolutions per day: 15.05657124
mean anomaly at epoch: 271.3020°

The dashed part of the orbit path shows where the satellite is in the earth's shadow,  

DLR